Location: Saint-Maurice-d�Ard�che
(44.5216°N, 4.4002°E)
Time: 02:14:11
(UTC+00:00)

CZ-2C R/B - Pass Details

Date: 30 March 2020
Orbit: 705 x 907 km, 98.1° (Epoch: 29 May)

Event Time Altitude Azimuth Distance (km) Brightness Sun altitude
Rises 19:20:06 0° 167° (SSE) 3,265 5.9 -13.3°
Reaches altitude 10° 19:22:27 10° 168° (SSE) 2,311 5.2 -13.7°
Maximum altitude 19:27:32 83° 256° (WSW) 756 3.0 -14.6°
Drops below altitude 10° 19:32:25 10° 345° (NNW) 2,224 5.9 -15.4°
Sets 19:34:39 0° 347° (NNW) 3,133 6.7 -15.8°
